This demonstration page uses our WeatherBlox Daily Observations layout. Learn more.

Left ArrowRight Arrow

40.92501, -98.34201

Hourly Observations for July 2, 2021

Temp ( °F °C ) Dew Point ( °F °C ) Humidity (%) Winds ( mph kmh ) Pressure ( in mb ) Visibility ( mi km ) Precip ( " mm )
12:53 am 00:53 Clear 66 18.9 61 16.1 84 84 Calm 30.12 1020 10 16 0.00 0.00
1:53 am 01:53 Clear 66 18.9 60 15.6 81 81 Calm 30.13 1020 10 16 0.00 0.00
2:53 am 02:53 Clear 64 17.8 59 15 84 84 WSW 3 6 30.11 1020 8 13 0.00 0.00
3:53 am 03:53 Clear 63 17.2 59 15 87 87 Calm 30.11 1020 7 11 0.00 0.00
4:53 am 04:53 Clear 62 16.7 58 14.4 86 86 Calm 30.13 1020 8 13 0.00 0.00
5:53 am 05:53 Clear with Mist and Fog 61 16.1 58 14.4 90 90 NW 3 6 30.14 1021 4 6 0.00 0.00
6:53 am 06:53 Sunny with Mist and Fog 62 16.7 58 14.4 86 86 Calm 30.15 1021 3 5 0.00 0.00
7:39 am 07:39 Sunny with Mist and Fog 65 18.3 61 16.1 87 87 NE 3 6 30.14 1021 3 4 0.00 0.00
7:53 am 07:53 Hazy 67 19.4 62 16.7 84 84 Calm 30.16 1021 3 5 0.00 0.00
8:17 am 08:17 Hazy 69 20.6 62 16.7 78 78 Calm 30.13 1020 3 5 0.00 0.00
8:53 am 08:53 Hazy 71 21.7 63 17.2 76 76 Calm 30.16 1021 6 10 0.00 0.00
9:53 am 09:53 Sunny 75 23.9 63 17.2 66 66 E 3 6 30.15 1021 10 16 0.00 0.00
10:53 am 10:53 Sunny 79 26.1 61 16.1 54 54 VRB 5 7 30.15 1021 10 16 0.00 0.00
11:53 am 11:53 Mostly Sunny 81 27.2 60 15.6 49 49 SE 10 17 30.15 1021 10 16 0.00 0.00
12:53 pm 12:53 Mostly Sunny 82 27.8 58 14.4 44 44 VRB 7 11 30.14 1021 10 16 0.00 0.00
1:53 pm 13:53 Sunny 84 28.9 55 12.8 37 37 SSE 7 11 30.12 1020 10 16 0.00 0.00
2:53 pm 14:53 Sunny 85 29.4 54 12.2 35 35 SSE 12 19 30.11 1020 10 16 0.00 0.00
3:53 pm 15:53 Sunny 85 29.4 55 12.8 36 36 SSE 10 17 30.10 1019 10 16 0.00 0.00
4:53 pm 16:53 Sunny 85 29.4 55 12.8 36 36 SE 10 17 30.09 1019 10 16 0.00 0.00
5:53 pm 17:53 Sunny 84 28.9 55 12.8 37 37 SE 7 11 30.07 1018 10 16 0.00 0.00
6:53 pm 18:53 Sunny 83 28.3 56 13.3 40 40 SE 9 15 30.05 1018 10 16 0.00 0.00
7:53 pm 19:53 Sunny 82 27.8 56 13.3 41 41 SE 5 7 30.04 1017 10 16 0.00 0.00
8:53 pm 20:53 Sunny 77 25 61 16.1 58 58 ESE 3 6 30.04 1017 10 16 0.00 0.00
9:53 pm 21:53 Clear 72 22.2 60 15.6 66 66 E 5 7 30.05 1018 10 16 0.00 0.00
10:53 pm 22:53 Clear 71 21.7 61 16.1 71 71 SE 3 6 30.07 1018 9 14 0.00 0.00
11:53 pm 23:53 Mostly Cloudy 71 21.7 61 16.1 71 71 SE 6 9 30.08 1019 10 16 0.00 0.00

Powered by AerisWeather